Location: Bonneuil
(46.1010°N, 2.9693°E)
Time: 22:55:54
(UTC+00:00)

Cosmos 2151 - Pass Details

Date: 09 April 2020
Orbit: 582 x 600 km, 82.5° (Epoch: 05 June)

Event Time Altitude Azimuth Distance (km) Brightness Sun altitude
Rises 21:01:57 0° 352° (N) 2,817 7.2 -24.3°
Reaches altitude 10° 21:04:09 10° 354° (N) 1,913 6.2 -24.5°
Enters shadow 21:07:39 58° 14° (NNE) 686 3.3 -25.0°
